Regional Weather Roundup
Issued by NWS

Home | Current Version | Previous Version | Graphics & Text | Print | Product List | Glossary On
Versions: 1 2 3 4 5 6 7 8 9 10 11 12 13 14 15 16 17 18 19 20 21 22 23 24 25 26 27 28 29 30 31 32 33 34 35 36 37 38 39 40 41 42 43 44 45 46 47 48 49 50
000
ASUS43 KFSD 281110
RWRSD

WEATHER ROUNDUP FOR SOUTH DAKOTA
NATIONAL WEATHER SERVICE SIOUX FALLS SD
600 AM CDT THU MAY 28 2015

NOTE: "FAIR" INDICATES FEW OR NO CLOUDS BELOW 12,000 FEET WITH NO
SIGNIFICANT WEATHER AND/OR OBSTRUCTIONS TO VISIBILITY.


SDZ001>005-009-010-012>017-281200-
NORTHWEST AND NORTH CENTRAL SOUTH DAKOTA

CITY           SKY/WX    TMP DP  RH WIND       PRES   REMARKS
BUFFALO          N/A     54  52  93 NW8       29.86F
FAITH            N/A     52  50  93 SW9       29.91R
MOBRIDGE       PTCLDY    59  58  96 SE7       29.86S
$$

SDZ012>016-024>037-041>051-057-063-072>074-281200-
SOUTHWEST AND SOUTH CENTRAL SOUTH DAKOTA

CITY           SKY/WX    TMP DP  RH WIND       PRES   REMARKS
RAPID CTY ARPT CLOUDY    57  54  89 NE10      29.91F
PIERRE         PTCLDY    57  54  89 SE9       29.89S
CUSTER         FOG       46  44  93 NW5       30.01F VSB 1/2
ELLSWORTH AFB  CLOUDY    57  55  91 N12       29.91
PHILIP         PTCLDY    53  52  96 CALM      29.88F
PINE RIDGE     MOCLDY    59  50  72 W6        29.95S
SPEARFISH      FAIR      50  48  93 SW5       29.95F
WINNER         FAIR      64  56  75 S16       29.95R
$$

SDZ004>011-016>023-039-040-281200-
NORTHEAST SOUTH DAKOTA

CITY           SKY/WX    TMP DP  RH WIND       PRES   REMARKS
ABERDEEN       CLOUDY    61  57  87 S9        29.92F
WATERTOWN      MOCLDY    61  51  70 S6        29.99R
BROOKINGS      MOCLDY    64  50  59 S9        30.03R
SISSETON         N/A     63  57  81 S5        29.93F
$$

SDZ017-020-022-023-036>040-048>070-281200-
SOUTHEAST SOUTH DAKOTA

CITY           SKY/WX    TMP DP  RH WIND       PRES   REMARKS
SIOUX FALLS    CLOUDY    66  51  58 S10       30.02S
HURON            N/A    N/A N/A N/A MISG      29.95S
CHAMBERLAIN    MOCLDY    61  57  87 S8        29.95S
MITCHELL       MOCLDY    64  54  69 S9        29.98S
YANKTON        CLOUDY    63  52  67 E3        30.01R
$$

ABBREVIATIONS USED IN REMARKS
   TC - TEMPERATURE IN CELSIUS
  WCI - WIND CHILL INDEX
   HX - HEAT INDEX
  VSB - VISIBILITY




USA.gov is the U.S. government's official web portal to all federal, state and local government web resources and services.